User: anonymous   Login
Location: Iesi
(43.5167°N, 13.2333°E)
Time: 09:06:48
(UTC+00:00)
Language:

Cosmos 1805 Rocket - Orbit

View from above orbital plane
View from above orbital plane
View from above satellite
View from above satellite

Ground track
Ground track

The orbit data is extracted from the following two-line orbital elements,

1 17192U 86097B   20293.50908916 +.00000096 +00000-0 +86703-5 0  9998
2 17192 082.5093 191.0630 0018057 042.5240 130.3745 14.83616580829618
Epoch (UTC): 19 October 2020 12:13:05
Eccentricity: 0.0018057
inclination: 82.5093°
perigee height: 605 km
apogee height: 630 km
right ascension of ascending node: 191.0630°
argument of perigee: 42.5240°
revolutions per day: 14.83616580
mean anomaly at epoch: 130.3745°
orbit number at epoch: 82961

The dashed part of the orbit path shows where the satellite is in the earth's shadow,  

DLR